RH
47 48 48 50 49 52 57 57 54 54 52 54 60 64 62 62 61 65 68 73 72 71 69 69 71 70 75 71 68 63 55 51
47 49 52 51 49 47 50 52 49 50 50 57 62 64 67 65 63 63 64 69 70 68 68 69 69 72 74 74 69 66 62 54
46 46 48 51 48 45 44 46 44 45 51 53 58 61 62 62 61 63 67 68 65 67 68 68 68 74 74 74 73 68 65 59
48 45 46 47 46 46 44 45 43 43 50 56 63 67 69 70 69 67 65 66 64 62 64 66 67 71 69 76 73 70 68 65
48 49 46 46 45 46 45 46 44 44 52 56 61 61 61 61 63 65 64 66 65 66 63 65 64 69 69 67 75 75 73 67
42 48 47 47 47 46 47 47 46 48 53 55 57 61 60 62 64 65 65 66 65 64 65 64 65 70 70 67 69 72 74 75
42 49 50 47 49 47 47 48 49 53 57 57 56 59 63 64 65 66 67 67 67 67 68 67 66 68 68 69 66 66 70 78
56 57 53 49 50 49 48 49 54 57 60 63 61 64 67 65 65 66 67 66 69 68 70 69 71 68 68 69 68 65 66 70
75 69 62 57 56 53 52 54 56 59 62 63 63 64 68 69 68 69 69 68 70 69 73 72 73 73 71 73 74 70 69 71
81 83 75 72 67 63 62 63 63 63 63 65 65 69 69 72 68 72 71 75 76 79 79 83 83 81 82 78 75 75 71 71
89 86 85 79 74 73 68 68 68 74 71 73 71 71 73 77 75 78 82 85 86 84 90 92 90 94 89 88 84 80 81 78
93 94 89 79 75 74 72 75 76 77 77 80 80 75 79 78 85 83 86 89 91 91 86 84 86 89 95 92 92 87 84 85
98 95 93 86 77 76 74 75 77 81 84 86 84 82 83 89 91 91 91 96 91 98 97 91 94 94 89 93 95 91 90 93
98 98 98 97 91 84 81 78 76 79 83 85 85 84 86 93 97 98 98 98 98 96 94 91 92 92 93 90 93 98 98 92
98 97 97 98 98 97 94 90 87 80 77 80 83 80 82 89 93 92 90 95 93 89 93 99 96 89 92 91 94 91 91 89
97 97 94 91 90 93 95 94 95 93 87 80 78 79 81 87 87 85 87 85 87 84 85 89 95 88 95 88 92 96 94 95
91 90 90 88 83 85 82 84 84 85 85 88 89 83 76 79 82 87 77 76 79 77 81 81 86 78 81 83 85 93 88 89
81 80 79 82 83 80 69 69 74 75 74 76 77 76 82 86 83 81 74 75 73 67 68 74 71 64 62 66 71 78 91 90
71 69 65 67 67 68 67 65 61 62 66 68 68 68 69 68 73 73 79 80 71 72 64 60 60 63 65 62 58 67 72 71